This demonstration page uses our WeatherBlox Daily Observations layout. Learn more.

Left ArrowRight Arrow

Hourly Observations for August 9, 2022

Temp ( °F °C ) Dew Point ( °F °C ) Humidity (%) Winds ( mph kmh ) Pressure ( in mb ) Visibility ( mi km ) Precip ( " mm )
12:53 am 00:53 Clear 75 23.9 71 21.7 88 88 Calm 30.11 1020 10 16 0.00 0.00
1:53 am 01:53 Clear 74 23.3 70 21.1 87 87 SSE 5 7 30.10 1019 10 16 0.00 0.00
2:53 am 02:53 Clear 73 22.8 70 21.1 90 90 Calm 30.08 1019 10 16 0.00 0.00
3:53 am 03:53 Clear 73 22.8 71 21.7 94 94 Calm 30.09 1019 10 16 0.00 0.00
4:53 am 04:53 Clear 72 22.2 70 21.1 93 93 Calm 30.09 1019 10 16 0.00 0.00
5:50 am 05:50 Mostly Clear 72 22 70 21 94 94 SW 5 7 30.10 1019 10 16 0.00 0.00
5:53 am 05:53 Mostly Clear 72 22.2 70 21.1 93 93 SW 5 7 30.10 1019 10 16 0.00 0.00
6:29 am 06:29 Mostly Cloudy 72 22.2 70 21.1 93 93 SSW 6 9 30.10 1019 10 16 0.00 0.00
6:53 am 06:53 Mostly Cloudy 72 22.2 70 21.1 93 93 Calm 30.11 1020 10 16 0.00 0.00
7:43 am 07:43 Mostly Cloudy 72 22.2 70 21.1 93 93 WSW 3 6 30.12 1020 10 16 0.00 0.00
7:53 am 07:53 Mostly Cloudy 73 22.8 70 21.1 90 90 Calm 30.13 1020 10 16 0.00 0.00
8:53 am 08:53 Mostly Sunny 75 23.9 71 21.7 88 88 VRB 3 6 30.14 1021 10 16 0.00 0.00
9:12 am 09:12 Mostly Cloudy 75 23.9 71 21.7 88 88 SSW 6 9 30.14 1021 10 16 0.00 0.00
9:20 am 09:20 Cloudy 75 23.9 70 21.1 84 84 WSW 6 9 30.15 1021 10 16 0.00 0.00
9:53 am 09:53 Cloudy 75 23.9 71 21.7 88 88 S 8 13 30.15 1021 10 16 0.00 0.00
9:55 am 09:55 Cloudy 75 23.9 71 21.7 88 88 S 8 13 30.15 1021 10 16 0.00 0.00
10:53 am 10:53 Cloudy 75 23.9 71 21.7 88 88 SSW 7 11 30.15 1021 10 16 0.00 0.00
11:53 am 11:53 Cloudy 77 25 72 22.2 84 84 SW 7 11 30.15 1021 10 16 0.00 0.00
12:53 pm 12:53 Mostly Sunny 82 27.8 73 22.8 74 74 SW 5 7 30.13 1020 10 16 0.00 0.00
1:53 pm 13:53 Partly Cloudy 85 29.4 72 22.2 65 65 VRB 6 9 30.12 1020 10 16 0.00 0.00
2:53 pm 14:53 Partly Cloudy 87 30.6 71 21.7 59 59 SE 6 9 30.10 1019 10 16 0.00 0.00
3:16 pm 15:16 Mostly Cloudy with Nearby Thunderstorms 87 30.6 70 21.1 57 57 S 9 15 30.07 1018 10 16 0.00 0.00
3:31 pm 15:31 Partly Cloudy 88 31.1 70 21.1 55 55 SSE 6 9 30.05 1018 10 16 0.00 0.00
3:53 pm 15:53 Sunny with Nearby Thunderstorms 88 31.1 70 21.1 55 55 Calm 30.08 1019 10 16 0.00 0.00
4:45 pm 16:45 Mostly Sunny 88 31.1 69 20.6 54 54 VRB 3 6 30.02 1017 10 16 0.00 0.00
5:00 pm 17:00 Partly Cloudy with Thunderstorms 90 32.2 69 20.6 50 50 N 5 7 30.02 1017 10 16 0.00 0.00
5:21 pm 17:21 Partly Cloudy with Nearby Thunderstorms 86 30 72 22.2 63 63 N 8 13 30.03 1017 10 16 0.00 0.00
5:30 pm 17:30 Partly Cloudy 85 29.4 72 22.2 65 65 N 10 17 30.04 1017 10 16 0.00 0.00
5:50 pm 17:50 Partly Cloudy with Thunderstorms 83 28.3 73 22.8 72 72 N 6 9 30.05 1018 10 16 0.00 0.00
6:11 pm 18:11 Partly Cloudy with Nearby Thunderstorms 83 28.3 72 22.2 70 70 NE 5 7 30.04 1017 10 16 0.00 0.00
6:21 pm 18:21 Partly Cloudy with Thunderstorms 84 28.9 72 22.2 67 67 ESE 6 9 30.05 1018 10 16 0.00 0.00
6:53 pm 18:53 Cloudy with Thunderstorms 79 26.1 72 22.2 79 79 N 5 7 30.08 1019 10 16 0.01 0.25
7:11 pm 19:11 Cloudy with Nearby Thunderstorms 78 25.6 72 22.2 82 82 N 5 7 30.06 1018 10 16 0.01 0.13
7:21 pm 19:21 Mostly Cloudy with Light Rain 77 25 72 22.2 84 84 ENE 5 7 30.06 1018 10 16 0.01 0.13
7:34 pm 19:34 Partly Cloudy with Nearby Thunderstorms 77 25 73 22.8 88 88 NE 3 6 30.06 1018 10 16 0.01 0.13
7:53 pm 19:53 Mostly Cloudy with Thunderstorms 78 25.6 74 23.3 87 87 SSW 3 6 30.09 1019 10 16 0.01 0.13
8:06 pm 20:06 Mostly Cloudy with Nearby Thunderstorms 78 25.6 73 22.8 85 85 SE 6 9 30.08 1019 10 16 0.00 0.00
8:46 pm 20:46 Partly Cloudy 78 25.6 72 22.2 82 82 SSE 7 11 30.08 1019 10 16 0.00 0.00
8:53 pm 20:53 Partly Cloudy 77 25 72 22.2 84 84 S 5 7 30.09 1019 10 16 0.00 0.00
9:53 pm 21:53 Mostly Clear 77 25 71 21.7 82 82 Calm 30.11 1020 10 16 0.01 0.13
10:53 pm 22:53 Partly Cloudy 75 23.9 73 22.8 94 94 W 3 6 30.13 1020 10 16 0.00 0.00
11:28 pm 23:28 Cloudy with Nearby Thunderstorms 75 23.9 73 22.8 94 94 Calm 30.13 1020 10 16 0.01 0.13
11:47 pm 23:47 Cloudy with Nearby Thunderstorms 75 24 72 22 89 89 S 9 15 30.15 1021 10 16 0.01 0.13
11:53 pm 23:53 Cloudy with Nearby Thunderstorms 75 23.9 72 22.2 90 90 SSW 10 17 30.15 1021 10 16 0.01 0.13

Powered by AerisWeather